Flag for Mexico Weather past 2 weeks in Puerto Vallarta, Jalisco, Mexico

Now
81 °F

Broken clouds.


Feels Like: 83 °F
Forecast: N/A
Wind: 8 mph from South

Location: Puerto Vallarta / Lic

Current Time: Mar 5, 2015 at 5:31:27 PM

Latest Report: Mar 5, 2015 at 4:47 PM


Visibility: 15 mi

Pressure: 29.84 "Hg

Humidity: 62%

Dew point: 66 °F

Location of Puerto VallartaLocation

Historic Weather in Puerto Vallarta — Graph

°F

Puerto Vallarta temperature yesterday

Maximum temperature yesterday: 79 °F (at 11:50 AM)
Minimum temperature yesterday: 64 °F (at 3:45 AM)
Average temperature yesterday: 73 °F

Past Weeks' High & Low Weather Summary

 TemperatureHumidityPressure
High86 °F (Mar 3, 1:45 PM)100% (Feb 25, 2:43 AM)30.05 "Hg (Feb 25, 2:43 AM)
Low61 °F (Feb 28, 7:45 AM)35% (Mar 3, 3:46 PM)29.80 "Hg (Mar 3, 3:46 PM)
Average74 °F77%29.93 "Hg
* Reported Feb 18 3:52 PM — Mar 5 3:46 PM, Puerto Vallarta, Weather by CustomWeather, © 2015

Note: Actual official high and low records may vary slightly from our data, if they occured in-between our weather recording intervals... More about our weather records

Advertising

Puerto Vallarta weather history for previous 24 hours

 ConditionsComfort  
Time TempWeatherWind HumidityBarometerVisibility
3:46 PM
Thu, Mar 5
79 °FMore clouds than sun.8 mph65%29.85 "Hg12 mi
2:49 PM81 °FMore clouds than sun.9 mph62%29.86 "Hg12 mi
12:45 PM77 °FPartly sunny.8 mph69%29.90 "Hg12 mi
11:48 AM77 °FPartly sunny.7 mph69%29.91 "Hg12 mi
10:49 AM77 °FPartly sunny.3 mph69%29.93 "Hg12 mi
9:48 AM72 °FPartly sunny.No wind78%29.92 "Hg15 mi
8:50 AM68 °FPartly sunny.3 mph83%29.88 "Hg15 mi
7:52 AM66 °FMostly cloudy.No wind88%29.87 "Hg15 mi
6:49 AM66 °FOvercast.No wind88%29.87 "Hg12 mi
5:45 AM66 °FMostly cloudy.No wind88%29.85 "Hg12 mi
3:45 AM66 °FPartly cloudy.No wind88%29.88 "Hg12 mi
2:45 AM68 °FPartly cloudy.No wind88%29.89 "Hg12 mi
1:45 AM68 °FPassing clouds.No wind94%29.91 "Hg12 mi
12:43 AM70 °FPartly cloudy.No wind88%29.93 "Hg12 mi
11:45 PM
Wed, Mar 4
72 °FPartly cloudy.No wind83%29.92 "Hg12 mi
10:46 PM72 °FMostly cloudy.No wind78%29.93 "Hg12 mi
8:47 PM75 °FMostly cloudy.3 mph78%29.91 "Hg12 mi
7:47 PM75 °FMostly cloudy.5 mph78%29.90 "Hg12 mi
6:52 PM77 °FMostly cloudy.3 mph74%29.90 "Hg15 mi
Weather by CustomWeather, © 2015

See weather overviewHow to use our weather pages